Regional Weather Roundup
Issued by NWS

Home | Current Version | Previous Version | Text Only | Print | Product List | Glossary On
Versions: 1 2 3 4 5 6 7 8 9 10 11 12 13 14 15 16 17 18 19 20 21 22 23 24 25 26 27 28 29 30 31 32 33 34 35 36 37 38 39 40 41 42 43 44 45 46 47 48 49 50
696
ASUS44 KOUN 300310
RWROK

WEATHER ROUNDUP FOR OKLAHOMA
NATIONAL WEATHER SERVICE NORMAN OK
1000 PM CDT FRI APR 29 2016

NOTE: "FAIR" INDICATES FEW OR NO CLOUDS BELOW 12,000 FEET WITH NO
      SIGNIFICANT WEATHER AND/OR OBSTRUCTIONS TO VISIBILITY.

OKZ001>007-009>012-014-015-017-300400-
NORTHWEST OKLAHOMA AND THE PANHANDLE

CITY           SKY/WX    TMP DP  RH WIND       PRES   REMARKS
GAGE           CLOUDY    48  45  89 NW10      29.78R
GUYMON         CLOUDY    43  39  86 N12       29.84R
ENID/WOODRING  CLOUDY    55  55 100 NW9       29.68R
$$

OKZ016-021>023-033>039-044-045-300400-
SOUTHWEST OKLAHOMA

CITY           SKY/WX    TMP DP  RH WIND       PRES   REMARKS
LAWTON/REGL    CLOUDY    58  55  90 N10       29.72R
LAWTON/FT SILL CLOUDY    57  57  99 N10       29.70R
FREDERICK      CLEAR     57  54  89 N13G22    29.70R
CLINTON        CLOUDY    51  48  89 N16G25    29.75R
HOBART         CLOUDY    54  51  90 N14       29.75R
ALTUS AFB      CLEAR     54  48  80 N14       29.73R
$$

OKZ018>020-024>031-300400-
CENTRAL OKLAHOMA

CITY           SKY/WX    TMP DP  RH WIND       PRES   REMARKS
OKLAHOMA CITY  CLOUDY    57  57 100 NW17      29.69R FOG
OKC/WILEY POST CLOUDY    56  55  97 NW13      29.70R FOG
OKC/TINKER AFB CLOUDY    59  58  96 NW13      29.68R
STILLWATER     CLOUDY    61  59  93 E7        29.65R
GUTHRIE        CLOUDY    60  57  89 W10       29.68R
$$

OKZ008-013-054>072-300400-
NORTHEAST OKLAHOMA

CITY           SKY/WX    TMP DP  RH WIND       PRES   REMARKS
TULSA          CLOUDY    67  63  87 SE9       29.62R
TULSA/JONES    CLOUDY    67  63  87 S6        29.64R
PONCA CITY     CLOUDY    61  58  90 E9        29.64R
BARTLESVILLE   CLOUDY    61  58  90 E7        29.66R
MUSKOGEE       LGT RAIN  64  62  93 SE13G22   29.66F
$$

OKZ032-040>043-046>053-073>077-300400-
SOUTH CENTRAL/SOUTHEAST OKLAHOMA

CITY           SKY/WX    TMP DP  RH WIND       PRES   REMARKS
ARDMORE/DWNTWN PTCLDY    61  59  94 N3        29.64R
MCALESTER      CLOUDY    66  64  93 S3        29.65R
$$





USA.gov is the U.S. government's official web portal to all federal, state and local government web resources and services.